| time (UTC) | temp F | wind direction | speed MPH | gust MPH | rain 1hr in | rain 24hr in | rain mn in | humidity % | barometer mb |
| 20260508203020 | 50 | 299 | 4.0 | 12.0 | 0.00 | 0.01 | 0.01 | 45 | 1011.7 |
| 20260508201522 | 49 | 355 | 1.0 | 9.0 | 0.00 | 0.01 | 0.01 | 52 | 1011.7 |
| 20260508200031 | 49 | 257 | 2.0 | 10.0 | 0.00 | 0.01 | 0.01 | 52 | 1011.9 |
| 20260508194527 | 51 | 13 | 7.0 | 15.0 | 0.00 | 0.01 | 0.01 | 54 | 1012.0 |
| 20260508193014 | 50 | 249 | 2.0 | 12.0 | 0.00 | 0.01 | 0.01 | 53 | 1011.9 |
| 20260508191525 | 49 | 309 | 5.0 | 16.0 | 0.00 | 0.01 | 0.01 | 58 | 1012.0 |
| 20260508190033 | 49 | 319 | 5.0 | 12.0 | 0.00 | 0.01 | 0.01 | 58 | 1011.9 |
| 20260508184527 | 48 | 311 | 5.0 | 11.0 | 0.00 | 0.01 | 0.01 | 55 | 1012.0 |
| 20260508183015 | 49 | 252 | 5.0 | 14.0 | 0.00 | 0.01 | 0.01 | 50 | 1012.0 |
| 20260508181541 | 47 | 296 | 4.0 | 9.0 | 0.00 | 0.01 | 0.01 | 59 | 1012.1 |
| 20260508180005 | 47 | 355 | 4.0 | 10.0 | 0.00 | 0.01 | 0.01 | 57 | 1012.3 |
| 20260508174514 | 47 | 329 | 3.0 | 10.0 | 0.00 | 0.01 | 0.01 | 55 | 1012.4 |
| 20260508173012 | 47 | 335 | 3.0 | 13.0 | 0.00 | 0.01 | 0.01 | 58 | 1012.5 |
| 20260508171517 | 46 | 321 | 5.0 | 12.0 | 0.00 | 0.01 | 0.01 | 58 | 1012.6 |
| 20260508170024 | 47 | 74 | 1.0 | 10.0 | 0.00 | 0.01 | 0.01 | 65 | 1012.4 |
| 20260508164505 | 46 | 286 | 3.0 | 8.0 | 0.00 | 0.01 | 0.01 | 68 | 1012.4 |
| 20260508163008 | 47 | 336 | 8.0 | 15.0 | 0.00 | 0.01 | 0.01 | 55 | 1012.6 |
| 20260508161511 | 47 | 289 | 2.0 | 9.0 | 0.00 | 0.01 | 0.01 | 60 | 1012.6 |
| 20260508160033 | 46 | 296 | 2.0 | 11.0 | 0.00 | 0.01 | 0.01 | 62 | 1012.8 |
| 20260508154524 | 46 | 24 | 3.0 | 12.0 | 0.00 | 0.01 | 0.01 | 63 | 1012.7 |
| 20260508153006 | 45 | 300 | 5.0 | 14.0 | 0.00 | 0.01 | 0.01 | 64 | 1012.6 |
| 20260508151511 | 45 | 282 | 4.0 | 11.0 | 0.00 | 0.01 | 0.01 | 62 | 1012.8 |
| 20260508150015 | 44 | 228 | 5.0 | 10.0 | 0.00 | 0.01 | 0.01 | 65 | 1012.8 |
| 20260508144520 | 44 | 300 | 5.0 | 10.0 | 0.00 | 0.01 | 0.01 | 68 | 1013.0 |
| 20260508143026 | 43 | 254 | 4.0 | 9.0 | 0.00 | 0.01 | 0.01 | 70 | 1012.9 |
| 20260508141510 | 42 | 266 | 3.0 | 9.0 | 0.00 | 0.01 | 0.01 | 67 | 1012.8 |
| 20260508140012 | 41 | 294 | 1.0 | 5.0 | 0.00 | 0.01 | 0.01 | 68 | 1012.9 |
| 20260508134517 | 42 | 261 | 6.0 | 10.0 | 0.00 | 0.01 | 0.01 | 71 | 1012.9 |
| 20260508133021 | 42 | 269 | 1.0 | 8.0 | 0.00 | 0.01 | 0.01 | 78 | 1012.7 |
| 20260508131524 | 42 | 295 | 2.0 | 6.0 | 0.00 | 0.01 | 0.01 | 80 | 1012.7 |
| 20260508130012 | 42 | 297 | 3.0 | 7.0 | 0.00 | 0.01 | 0.01 | 82 | 1012.4 |
| 20260508124517 | 41 | 295 | 3.0 | 5.0 | 0.00 | 0.01 | 0.01 | 86 | 1012.2 |
| 20260508123020 | 40 | 343 | 0.0 | 4.0 | 0.00 | 0.01 | 0.01 | 92 | 1012.0 |
| 20260508121523 | 40 | 319 | 2.0 | 7.0 | 0.00 | 0.01 | 0.01 | 93 | 1012.0 |
| 20260508120035 | 39 | 294 | 1.0 | 4.0 | 0.00 | 0.01 | 0.01 | 95 | 1012.1 |
| 20260508114513 | 38 | 331 | 0.0 | 3.0 | 0.00 | 0.01 | 0.01 | 96 | 1012.1 |
| 20260508113019 | 37 | 177 | 1.0 | 2.0 | 0.00 | 0.01 | 0.01 | 96 | 1012.2 |
| 20260508111522 | 36 | 273 | 0.0 | 1.0 | 0.00 | 0.01 | 0.01 | 96 | 1012.3 |
| 20260508110025 | 35 | 120 | 0.0 | 3.0 | 0.00 | 0.01 | 0.01 | 96 | 1012.3 |
| 20260508104510 | 34 | 188 | 0.0 | 2.0 | 0.00 | 0.01 | 0.01 | 96 | 1012.2 |
| 20260508103027 | 33 | 188 | 0.0 | 1.0 | 0.00 | 0.01 | 0.01 | 95 | 1012.1 |
| 20260508101533 | 32 | 188 | 0.0 | 2.0 | 0.00 | 0.01 | 0.01 | 95 | 1012.1 |
| 20260508100027 | 32 | 188 | 0.0 | 2.0 | 0.00 | 0.01 | 0.01 | 94 | 1012.0 |
| 20260508094527 | 33 | 199 | 0.0 | 2.0 | 0.00 | 0.01 | 0.01 | 94 | 1011.9 |
| 20260508093011 | 33 | 198 | 0.0 | 2.0 | 0.00 | 0.01 | 0.01 | 94 | 1011.8 |
| 20260508091516 | 34 | 250 | 0.0 | 0.0 | 0.00 | 0.01 | 0.01 | 93 | 1011.8 |
| 20260508090024 | 35 | 250 | 0.0 | 2.0 | 0.00 | 0.01 | 0.01 | 92 | 1011.8 |
| 20260508084525 | 35 | 250 | 0.0 | 2.0 | 0.00 | 0.01 | 0.01 | 92 | 1011.8 |
| 20260508083012 | 36 | 250 | 0.0 | 3.0 | 0.00 | 0.01 | 0.01 | 92 | 1011.8 |
| 20260508081514 | 37 | 271 | 0.0 | 2.0 | 0.00 | 0.01 | 0.01 | 91 | 1011.8 |
| 20260508080020 | 37 | 279 | 0.0 | 3.0 | 0.00 | 0.01 | 0.01 | 91 | 1011.8 |
| 20260508074522 | 37 | 271 | 1.0 | 4.0 | 0.00 | 0.01 | 0.01 | 91 | 1011.7 |
| 20260508073028 | 37 | 246 | 1.0 | 3.0 | 0.00 | 0.01 | 0.01 | 91 | 1011.7 |
| 20260508071513 | 37 | 246 | 0.0 | 4.0 | 0.00 | 0.01 | 0.01 | 91 | 1011.6 |
| 20260508070015 | 38 | 296 | 1.0 | 7.0 | 0.00 | 0.01 | 0.01 | 91 | 1011.7 |
| 20260508064532 | 38 | 248 | 1.0 | 3.0 | 0.01 | 0.01 | 0.01 | 89 | 1011.7 |
| 20260508063025 | 38 | 252 | 1.0 | 3.0 | 0.01 | 0.01 | 0.01 | 88 | 1011.6 |
| 20260508061514 | 38 | 302 | 2.0 | 6.0 | 0.01 | 0.01 | 0.01 | 87 | 1011.7 |
| 20260508060016 | 39 | 307 | 1.0 | 10.0 | 0.01 | 0.01 | 0.01 | 86 | 1011.7 |
| 20260508054517 | 39 | 227 | 1.0 | 8.0 | 0.00 | 0.00 | 0.00 | 84 | 1011.5 |
| 20260508053024 | 40 | 286 | 2.0 | 9.0 | 0.00 | 0.00 | 0.00 | 80 | 1011.7 |
| 20260508051525 | 40 | 319 | 3.0 | 7.0 | 0.00 | 0.00 | 0.00 | 79 | 1011.4 |
| 20260508050018 | 40 | 299 | 3.0 | 9.0 | 0.00 | 0.00 | 0.00 | 76 | 1011.5 |
| 20260508044516 | 40 | 296 | 3.0 | 12.0 | 0.00 | 0.00 | 0.00 | 73 | 1011.4 |
| 20260508043021 | 40 | 303 | 5.0 | 9.0 | 0.00 | 0.00 | 0.00 | 72 | 1011.4 |
| 20260508041524 | 39 | 268 | 1.0 | 5.0 | 0.00 | 0.00 | 0.00 | 75 | 1011.1 |
| 20260508040036 | 39 | 273 | 1.0 | 4.0 | 0.00 | 0.00 | 0.00 | 75 | 1011.1 |
| 20260508034511 | 37 | 270 | 1.0 | 5.0 | 0.00 | 0.00 | 0.00 | 79 | 1011.1 |
| 20260508033021 | 36 | 297 | 0.0 | 2.0 | 0.00 | 0.00 | 0.00 | 80 | 1011.1 |
| 20260508031529 | 37 | 297 | 0.0 | 1.0 | 0.00 | 0.00 | 0.00 | 76 | 1011.0 |
| 20260508030025 | 37 | 297 | 0.0 | 0.0 | 0.00 | 0.00 | 0.00 | 74 | 1010.9 |
| 20260508024540 | 38 | 297 | 0.0 | 0.0 | 0.00 | 0.00 | 0.00 | 70 | 1011.0 |
| 20260508023024 | 39 | 297 | 0.0 | 1.0 | 0.00 | 0.00 | 0.00 | 66 | 1011.0 |
| 20260508021519 | 40 | 297 | 0.0 | 1.0 | 0.00 | 0.00 | 0.00 | 67 | 1011.0 |
| 20260508020022 | 40 | 297 | 0.0 | 2.0 | 0.00 | 0.00 | 0.00 | 63 | 1011.1 |
| 20260508014542 | 41 | 297 | 0.0 | 2.0 | 0.00 | 0.00 | 0.00 | 63 | 1011.2 |
| 20260508013029 | 42 | 297 | 0.0 | 2.0 | 0.00 | 0.00 | 0.00 | 61 | 1011.2 |
| 20260508011520 | 43 | 297 | 0.0 | 2.0 | 0.00 | 0.00 | 0.00 | 56 | 1011.0 |
| 20260508010027 | 44 | 277 | 0.0 | 3.0 | 0.00 | 0.00 | 0.00 | 58 | 1011.0 |
| 20260508004527 | 44 | 319 | 1.0 | 6.0 | 0.00 | 0.00 | 0.00 | 53 | 1010.7 |
| 20260508003031 | 45 | 313 | 2.0 | 5.0 | 0.00 | 0.00 | 0.00 | 53 | 1010.7 |
| 20260508001512 | 45 | 326 | 2.0 | 5.0 | 0.00 | 0.00 | 0.00 | 50 | 1010.6 |
| 20260508000019 | 46 | 340 | 2.0 | 9.0 | 0.00 | 0.00 | 0.00 | 47 | 1010.4 |
| 20260507234504 | 46 | 13 | 3.0 | 8.0 | 0.00 | 0.00 | 0.00 | 46 | 1010.4 |
| 20260507233006 | 47 | 10 | 4.0 | 10.0 | 0.00 | 0.00 | 0.00 | 44 | 1010.2 |
| 20260507231512 | 47 | 342 | 3.0 | 11.0 | 0.00 | 0.00 | 0.00 | 43 | 1010.2 |
| 20260507230017 | 48 | 347 | 4.0 | 10.0 | 0.00 | 0.00 | 0.00 | 42 | 1010.2 |
| 20260507224520 | 48 | 236 | 3.0 | 10.0 | 0.00 | 0.00 | 0.00 | 43 | 1010.2 |
| 20260507223004 | 48 | 295 | 2.0 | 8.0 | 0.00 | 0.00 | 0.00 | 43 | 1010.3 |
| 20260507221510 | 48 | 351 | 3.0 | 12.0 | 0.00 | 0.00 | 0.00 | 42 | 1010.2 |
| 20260507220014 | 49 | 318 | 5.0 | 13.0 | 0.00 | 0.00 | 0.00 | 40 | 1010.2 |
| 20260507214519 | 49 | 350 | 4.0 | 9.0 | 0.00 | 0.00 | 0.00 | 39 | 1010.4 |
| 20260507213024 | 49 | 28 | 3.0 | 13.0 | 0.00 | 0.00 | 0.00 | 41 | 1010.4 |
| 20260507211505 | 50 | 267 | 6.0 | 13.0 | 0.00 | 0.00 | 0.00 | 41 | 1010.3 |
| 20260507210011 | 50 | 321 | 10.0 | 16.0 | 0.00 | 0.00 | 0.00 | 36 | 1010.3 |
| 20260507204515 | 50 | 317 | 8.0 | 15.0 | 0.00 | 0.00 | 0.00 | 39 | 1010.3 |